[[{"header":{"parameterUnit":"m.s-1","parameterCategory":1,"la1":30.2991,"la2":30.254,"lo1":-89.0895,"lo2":-89.0444,"dy":0.0017,"dx":0.0017,"nx":28,"ny":28,"refTime":"2025-03-09T03:00:00:Z","depth":0,"parameterNumber":2,"parameterNumberName":"U-component_of_WINDS"},"data":[0,0,0,0,0,0,0,0,0,0,0,0,0,0,0,0,0,0,0,0,0,0,0,0,0,0,0,0,0,0,0,0,0,0,0,0,0,0,0,0,0,0,0,0,0,0,0,0,0,0,0,0,0,0,0,0,0,0,-0.5719,-0.572,0,-0.5804,-0.5805,-0.5806,-0.5836,-0.5836,-0.5835,-0.5835,-0.5924,-0.5927,-0.5929,0,0,0,0,0,0,0,0,0,0,0,0,0,-0.5584,-0.5586,-0.5719,-0.572,-0.5721,-0.5804,-0.5805,-0.5806,-0.5836,-0.5836,-0.5835,-0.5835,-0.5923,-0.5926,-0.593,0,0,0,0,0,0,0,0,0,0,0,0,0,-0.5653,-0.5587,-0.5719,-0.5746,-0.5749,-0.5804,-0.5805,-0.5807,-0.5836,-0.5836,-0.5835,-0.5835,-0.5922,-0.5926,-0.593,-0.5965,0,0,-0.5942,-0.5944,0,0,0,0,0,0,0,0,-0.5649,-0.5658,-0.5741,-0.5744,-0.5748,-0.5809,-0.579,-0.586,-0.5836,-0.5803,-0.5835,-0.5834,-0.5886,-0.5893,-0.591,-0.5969,-0.5973,-0.5943,-0.5945,-0.5947,-0.5948,0,0,0,0,0,0,0,-0.5644,-0.5654,-0.5753,-0.5742,-0.5746,-0.5754,-0.5764,-0.5803,-0.5846,-0.5806,-0.5808,-0.5818,-0.5888,-0.5906,-0.5913,-0.5974,-0.5943,-0.5946,-0.5949,-0.595,-0.6066,-0.6067,0,0,0,0,0,0,-0.5635,-0.565,-0.575,-0.5755,-0.5696,-0.5757,-0.5767,-0.579,-0.5846,-0.5854,-0.5818,-0.5819,-0.59,-0.5908,-0.5916,-0.5961,-0.5947,-0.5951,-0.5953,-0.6065,-0.6066,-0.6067,0,0,0,0,0,0,-0.5632,-0.5643,-0.5747,-0.5703,-0.5717,-0.576,-0.5785,-0.5792,-0.581,-0.5855,-0.5863,-0.5829,-0.59,-0.591,-0.5952,-0.5964,-0.5952,-0.5956,-0.6065,-0.6066,-0.6067,-0.6051,0,0,0,0,0,0,-0.5627,-0.5642,-0.5655,-0.5703,-0.5719,-0.5781,-0.5785,-0.5794,-0.5817,-0.5818,-0.5867,-0.5875,-0.59,-0.5946,-0.5956,-0.597,-0.5959,-0.6064,-0.6065,-0.6066,-0.605,-0.6051,-0.6051,0,0,0,0,0,-0.5623,-0.5647,-0.5656,-0.5667,-0.5737,-0.5782,-0.5791,-0.5818,-0.5817,-0.5831,-0.5861,-0.5874,-0.5961,-0.595,-0.5962,-0.5977,-0.6063,-0.6065,-0.6066,-0.605,-0.6051,-0.6051,0,0,0,0,0,0,-0.56,-0.5654,-0.5664,-0.5705,-0.5738,-0.5786,-0.5805,-0.5818,-0.5853,-0.5853,-0.5887,-0.5898,-0.5937,-0.5961,-0.5948,-0.6014,-0.6013,-0.6017,-0.5997,-0.5998,-0.5998,-0.5992,-0.5963,0,0,0,0,0,-0.56,-0.5631,-0.5677,-0.5709,-0.5725,-0.5762,-0.5783,-0.5801,-0.5837,-0.5852,-0.5884,-0.5919,-0.5955,-0.5977,-0.6012,-0.6053,-0.6065,-0.6069,-0.607,-0.607,-0.6074,-0.6098,-0.6101,-0.6072,-0.6072,-0.6072,0,0,-0.56,-0.5633,-0.5651,-0.5705,-0.5733,-0.5766,-0.5774,-0.5808,-0.5832,-0.5857,-0.5899,-0.5924,-0.5965,-0.6007,-0.6027,-0.6028,-0.6084,-0.6072,-0.6072,-0.6075,-0.61,-0.6102,-0.6105,-0.6073,-0.6073,-0.6073,0,0,-0.5616,-0.5644,-0.5674,-0.5702,-0.5744,-0.5769,-0.5776,-0.5822,-0.5839,-0.5881,-0.5901,-0.5931,-0.5991,-0.602,-0.6043,-0.607,-0.6084,-0.608,-0.6084,-0.6107,-0.611,-0.6112,-0.6123,-0.6126,-0.6083,-0.6083,-0.6083,0,-0.5611,-0.566,-0.5688,-0.5721,-0.5745,-0.5768,-0.5799,-0.5825,-0.5876,-0.5892,-0.5892,-0.5969,-0.5998,-0.6048,-0.6054,-0.6071,-0.6081,-0.6076,-0.6107,-0.6109,-0.6112,-0.6123,-0.6127,-0.6083,-0.6083,-0.6083,-0.6083,0,-0.5652,-0.5686,-0.5705,-0.5754,-0.578,-0.5812,-0.5845,-0.5868,-0.5884,-0.5908,-0.5951,-0.5987,-0.603,-0.6043,-0.6059,-0.6095,-0.6095,-0.61,-0.6101,-0.6114,-0.6124,-0.6129,-0.6082,-0.6082,-0.6082,-0.6082,0,0,-0.5658,-0.5722,-0.5728,-0.5751,-0.5799,-0.5826,-0.5859,-0.59,-0.592,-0.5954,-0.5984,-0.6034,-0.604,-0.6065,-0.6085,-0.6105,-0.6126,-0.6109,-0.611,-0.6111,-0.6168,-0.6164,-0.6169,-0.6134,-0.6135,-0.6136,-0.6165,0,-0.5682,-0.5742,-0.5768,-0.5816,-0.5848,-0.587,-0.5899,-0.5932,-0.5955,-0.5986,-0.6013,-0.6048,-0.6053,-0.6068,-0.6089,-0.6118,-0.6138,-0.6117,-0.6163,-0.6164,-0.6153,-0.6174,-0.617,-0.6196,-0.6169,-0.617,-0.6171,0,-0.5718,-0.5752,-0.5803,-0.5848,-0.5862,-0.5888,-0.5928,-0.5957,-0.5995,-0.6011,-0.6039,-0.6058,-0.6094,-0.6091,-0.6142,-0.6127,-0.6148,-0.6165,-0.6167,-0.6173,-0.6169,-0.6182,-0.6205,-0.6209,-0.6177,-0.6177,-0.6176,0,-0.5718,-0.5777,-0.5816,-0.5834,-0.5887,-0.5904,-0.5927,-0.5964,-0.5988,-0.6023,-0.6039,-0.6078,-0.61,-0.613,-0.6159,-0.6154,-0.6208,-0.6207,-0.6223,-0.6223,-0.6235,-0.6234,-0.6262,-0.6246,-0.6246,-0.6246,-0.6245,0,-0.5743,-0.5773,-0.5817,-0.584,-0.5876,-0.5905,-0.5939,-0.5964,-0.5997,-0.6026,-0.6048,-0.6075,-0.6111,-0.6143,-0.6166,-0.6205,-0.6215,-0.623,-0.6236,-0.6228,-0.6227,-0.6243,-0.6243,-0.6247,-0.6246,-0.6246,-0.6246,0,-0.5749,-0.5779,-0.5823,-0.5869,-0.5881,-0.5905,-0.5945,-0.5969,-0.5994,-0.6031,-0.6041,-0.608,-0.6119,-0.615,-0.6201,-0.6217,-0.6258,-0.6264,-0.6245,-0.6249,-0.6264,-0.6262,-0.6305,-0.6312,-0.6289,-0.6289,-0.6289,0,-0.5764,-0.5788,-0.5836,-0.5857,-0.588,-0.5913,-0.5937,-0.5967,-0.5991,-0.6036,-0.6055,-0.6096,-0.613,-0.6191,-0.6224,-0.6263,-0.6271,-0.6283,-0.6278,-0.627,-0.6273,-0.6272,-0.6275,-0.6284,-0.6285,-0.6285,-0.6285,0,-0.5786,-0.58,-0.5833,-0.5872,-0.59,-0.5932,-0.5964,-0.598,-0.6016,-0.6043,-0.6082,-0.6108,-0.616,-0.6201,-0.6243,-0.6268,-0.6283,-0.6286,-0.6292,-0.6286,-0.6274,-0.6282,-0.6248,-0.6285,-0.6285,-0.6285,-0.6285,-0.6285,-0.5798,-0.5821,-0.5859,-0.5895,-0.5923,-0.5953,-0.5978,-0.6005,-0.6039,-0.6083,-0.6098,-0.6139,-0.6177,-0.6236,-0.6261,-0.6294,-0.6295,-0.6304,-0.6306,-0.6308,-0.6308,-0.6268,-0.6302,-0.6302,-0.6302,-0.6302,-0.6302,0,-0.5823,-0.5848,-0.5881,-0.5926,-0.5955,-0.5965,-0.6002,-0.6026,-0.6061,-0.6095,-0.6128,-0.6174,-0.6213,-0.6248,-0.6289,-0.6309,-0.6317,-0.6319,-0.6319,-0.6324,-0.6304,-0.6295,-0.6312,-0.6312,-0.6312,-0.6312,-0.6312,-0.6312,-0.5839,-0.5878,-0.5896,-0.5949,-0.5975,-0.6015,-0.6035,-0.6063,-0.609,-0.614,-0.6172,-0.6195,-0.623,-0.6274,-0.631,-0.632,-0.6335,-0.6335,-0.6346,-0.6327,-0.6325,-0.6324,-0.6316,-0.6337,-0.6338,-0.6365,-0.6365,-0.6365]},{"header":{"parameterUnit":"m.s-1","parameterCategory":1,"la1":30.2991,"la2":30.254,"lo1":-89.0895,"lo2":-89.0444,"dy":0.0017,"dx":0.0017,"nx":28,"ny":28,"refTime":"2025-03-09T03:00:00:Z","depth":0,"parameterNumber":3,"parameterNumberName":"V-component_of_WINDS"},"data":[0,0,0,0,0,0,0,0,0,0,0,0,0,0,0,0,0,0,0,0,0,0,0,0,0,0,0,0,0,0,0,0,0,0,0,0,0,0,0,0,0,0,0,0,0,0,0,0,0,0,0,0,0,0,0,0,0,0,-3.5087,-3.5087,0,-3.5137,-3.5138,-3.5139,-3.5108,-3.5106,-3.5105,-3.5104,-3.5151,-3.5154,-3.5157,0,0,0,0,0,0,0,0,0,0,0,0,0,-3.496,-3.4963,-3.5087,-3.5087,-3.5088,-3.5137,-3.5138,-3.5139,-3.5108,-3.5106,-3.5105,-3.5103,-3.5151,-3.5154,-3.5157,0,0,0,0,0,0,0,0,0,0,0,0,0,-3.5013,-3.4963,-3.5087,-3.5079,-3.5079,-3.5137,-3.5138,-3.5139,-3.5108,-3.5106,-3.5104,-3.5102,-3.515,-3.5153,-3.5157,-3.5225,0,0,-3.5169,-3.5171,0,0,0,0,0,0,0,0,-3.501,-3.5018,-3.5079,-3.5079,-3.5079,-3.5114,-3.5111,-3.5168,-3.5109,-3.5097,-3.5104,-3.5101,-3.5141,-3.5145,-3.5159,-3.5228,-3.523,-3.517,-3.5172,-3.5174,-3.5175,0,0,0,0,0,0,0,-3.5007,-3.5016,-3.5107,-3.508,-3.508,-3.5072,-3.5077,-3.5122,-3.513,-3.5098,-3.5096,-3.5102,-3.514,-3.5156,-3.516,-3.523,-3.517,-3.5173,-3.5176,-3.5177,-3.5358,-3.536,0,0,0,0,0,0,-3.5004,-3.5013,-3.5105,-3.5108,-3.5039,-3.5076,-3.5081,-3.5105,-3.513,-3.5131,-3.5104,-3.5101,-3.515,-3.5156,-3.5162,-3.5244,-3.5174,-3.5177,-3.518,-3.5355,-3.5358,-3.5361,0,0,0,0,0,0,-3.5001,-3.5013,-3.5103,-3.506,-3.5071,-3.508,-3.5107,-3.5107,-3.5123,-3.5135,-3.5136,-3.5119,-3.5148,-3.5156,-3.521,-3.5245,-3.5179,-3.5183,-3.5352,-3.5356,-3.536,-3.5409,0,0,0,0,0,0,-3.4998,-3.5012,-3.5039,-3.5061,-3.5073,-3.5152,-3.5109,-3.511,-3.513,-3.5126,-3.5148,-3.515,-3.5147,-3.5205,-3.5214,-3.5249,-3.5186,-3.5349,-3.5354,-3.5358,-3.5404,-3.5413,-3.5422,0,0,0,0,0,-3.4994,-3.5049,-3.504,-3.5051,-3.5107,-3.5154,-3.5161,-3.5158,-3.5133,-3.516,-3.5167,-3.5149,-3.524,-3.521,-3.5221,-3.5258,-3.5347,-3.5353,-3.5358,-3.54,-3.5412,-3.5421,0,0,0,0,0,0,-3.5029,-3.5052,-3.5042,-3.5107,-3.5129,-3.5149,-3.5182,-3.517,-3.5199,-3.5194,-3.5187,-3.5192,-3.5249,-3.5259,-3.5226,-3.5325,-3.5289,-3.5297,-3.5318,-3.5329,-3.5337,-3.5334,-3.5189,0,0,0,0,0,-3.5045,-3.5082,-3.5099,-3.5155,-3.5167,-3.5173,-3.5193,-3.5189,-3.5211,-3.522,-3.5231,-3.5252,-3.5285,-3.5307,-3.5338,-3.5405,-3.5409,-3.5435,-3.5444,-3.5451,-3.5459,-3.5495,-3.5507,-3.5379,-3.5379,-3.5379,0,0,-3.5077,-3.5094,-3.5117,-3.5162,-3.5179,-3.5217,-3.5181,-3.5222,-3.525,-3.5225,-3.5278,-3.5287,-3.531,-3.5371,-3.5398,-3.5381,-3.5495,-3.5458,-3.5464,-3.5467,-3.5502,-3.5514,-3.5525,-3.5383,-3.5382,-3.5381,0,0,-3.5155,-3.5172,-3.522,-3.5238,-3.5265,-3.5269,-3.528,-3.5302,-3.5308,-3.5361,-3.5344,-3.5376,-3.5433,-3.5451,-3.5467,-3.5553,-3.5538,-3.5563,-3.561,-3.5646,-3.5656,-3.5665,-3.5697,-3.5708,-3.557,-3.557,-3.557,0,-3.5191,-3.525,-3.5246,-3.529,-3.5311,-3.5292,-3.5341,-3.5357,-3.5392,-3.5406,-3.5386,-3.5458,-3.5472,-3.5538,-3.5559,-3.5572,-3.5585,-3.5561,-3.5655,-3.5664,-3.5672,-3.5703,-3.5714,-3.5573,-3.5573,-3.5573,-3.5572,0,-3.5294,-3.5334,-3.537,-3.5406,-3.543,-3.5476,-3.5479,-3.5504,-3.5498,-3.5504,-3.5558,-3.5574,-3.5609,-3.5624,-3.5617,-3.5688,-3.5677,-3.5656,-3.562,-3.5688,-3.5716,-3.5728,-3.5578,-3.5576,-3.5576,-3.5575,0,0,-3.5396,-3.5431,-3.5444,-3.5461,-3.5489,-3.552,-3.5564,-3.56,-3.5622,-3.5646,-3.5684,-3.5733,-3.5714,-3.5733,-3.5728,-3.576,-3.5828,-3.5735,-3.5735,-3.5753,-3.5909,-3.5925,-3.5939,-3.5818,-3.582,-3.5822,-3.5907,0,-3.5477,-3.5558,-3.5557,-3.5631,-3.5669,-3.5651,-3.5691,-3.5712,-3.5718,-3.575,-3.5756,-3.5792,-3.5764,-3.5776,-3.5806,-3.5814,-3.586,-3.5807,-3.5853,-3.5855,-3.5849,-3.5954,-3.5971,-3.6051,-3.5918,-3.592,-3.5921,0,-3.5583,-3.5613,-3.5692,-3.5716,-3.5732,-3.5767,-3.58,-3.5831,-3.5854,-3.5857,-3.5878,-3.5869,-3.5914,-3.5876,-3.5938,-3.5902,-3.592,-3.5927,-3.593,-3.5935,-3.5893,-3.5962,-3.6076,-3.6089,-3.5939,-3.5937,-3.5936,0,-3.5651,-3.5711,-3.5767,-3.5781,-3.581,-3.5836,-3.5848,-3.587,-3.5891,-3.592,-3.5934,-3.5966,-3.5984,-3.6009,-3.6008,-3.5981,-3.6071,-3.6033,-3.6075,-3.6075,-3.6095,-3.6094,-3.6215,-3.6105,-3.6105,-3.6105,-3.6105,0,-3.5743,-3.5792,-3.5798,-3.5832,-3.5887,-3.5885,-3.5938,-3.5948,-3.5967,-3.6003,-3.5988,-3.6021,-3.6018,-3.6051,-3.605,-3.6102,-3.611,-3.6113,-3.6113,-3.6115,-3.6115,-3.6128,-3.6123,-3.6108,-3.6107,-3.6107,-3.6106,0,-3.5829,-3.5835,-3.5895,-3.5918,-3.5924,-3.5964,-3.5983,-3.6015,-3.602,-3.6065,-3.6075,-3.6083,-3.6122,-3.6124,-3.6167,-3.6166,-3.623,-3.6223,-3.6223,-3.6222,-3.6264,-3.6261,-3.6399,-3.6417,-3.6294,-3.6295,-3.6296,0,-3.5888,-3.5926,-3.5953,-3.5977,-3.5992,-3.603,-3.6052,-3.6051,-3.6075,-3.6105,-3.6134,-3.6171,-3.6201,-3.6263,-3.6272,-3.6305,-3.6299,-3.6345,-3.6304,-3.6306,-3.6301,-3.63,-3.6304,-3.6353,-3.6355,-3.6356,-3.6357,0,-3.5992,-3.5993,-3.6028,-3.6064,-3.6092,-3.612,-3.6145,-3.6165,-3.6166,-3.6194,-3.6234,-3.6258,-3.6303,-3.634,-3.6373,-3.6384,-3.6371,-3.637,-3.6381,-3.6385,-3.6384,-3.6387,-3.6247,-3.6367,-3.6366,-3.6365,-3.6364,-3.6364,-3.6067,-3.6101,-3.6126,-3.6165,-3.6184,-3.6209,-3.6241,-3.6251,-3.6285,-3.6324,-3.632,-3.6365,-3.6387,-3.643,-3.6444,-3.6478,-3.6463,-3.6479,-3.6483,-3.6488,-3.6493,-3.6378,-3.6484,-3.6484,-3.6483,-3.6483,-3.6483,0,-3.6172,-3.6188,-3.6223,-3.6261,-3.6292,-3.6278,-3.6305,-3.6332,-3.6372,-3.6395,-3.6425,-3.6471,-3.6508,-3.652,-3.6555,-3.658,-3.6575,-3.6589,-3.6588,-3.6591,-3.6505,-3.6492,-3.6593,-3.6593,-3.6593,-3.6593,-3.6593,-3.6593,-3.623,-3.6286,-3.6291,-3.6357,-3.6371,-3.6417,-3.6434,-3.6457,-3.6475,-3.6528,-3.6559,-3.6567,-3.6586,-3.6622,-3.6655,-3.6657,-3.6672,-3.6689,-3.6689,-3.6608,-3.6597,-3.6587,-3.6575,-3.6692,-3.6692,-3.6773,-3.6774,-3.6775]}]]